Time,TemperatureF,DewpointF,PressureIn,WindDirection,WindDirectionDegrees,WindSpeedMPH,WindSpeedGustMPH,Humidity,HourlyPrecipIn,Conditions,Clouds,dailyrainin,SoftwareType,DateUTC
2013-02-13 00:00:00,39.3,13.9,29.84,SSW,213,0.0,4.0,35,0.00,,SKC,0.00,VWS V14.01,2013-02-13 05:00:00,
2013-02-13 00:03:00,39.3,13.9,29.84,SSW,213,0.0,0.0,35,0.00,,SKC,0.00,VWS V14.01,2013-02-13 05:03:00,
2013-02-13 00:09:00,39.5,14.8,29.84,SSW,213,0.0,1.0,36,0.00,,SKC,0.00,VWS V14.01,2013-02-13 05:09:00,
2013-02-13 00:15:00,39.2,15.1,29.81,SSW,210,4.0,7.0,37,0.00,,SKC,0.00,VWS V14.01,2013-02-13 05:15:00,
2013-02-13 00:21:00,39.3,14.6,29.81,SSW,210,0.0,2.0,36,0.00,,SKC,0.00,VWS V14.01,2013-02-13 05:21:00,
2013-02-13 00:27:00,39.5,14.1,29.81,SSW,209,0.0,2.0,35,0.00,,SKC,0.00,VWS V14.01,2013-02-13 05:27:00,
2013-02-13 00:33:00,40.1,14.0,29.79,SW,229,0.0,3.0,34,0.00,,SKC,0.00,VWS V14.01,2013-02-13 05:33:00,
2013-02-13 00:39:00,40.3,14.2,29.79,SW,229,0.0,3.0,34,0.00,,SKC,0.00,VWS V14.01,2013-02-13 05:39:00,
2013-02-13 00:45:00,40.3,14.2,29.78,SW,229,0.0,3.0,34,0.00,,SKC,0.00,VWS V14.01,2013-02-13 05:45:00,
2013-02-13 00:51:00,40.2,14.1,29.78,SW,229,0.0,0.0,34,0.00,,SKC,0.00,VWS V14.01,2013-02-13 05:51:00,
2013-02-13 00:57:00,40.1,16.5,29.78,SW,229,0.0,0.0,38,0.00,,SKC,0.00,VWS V14.01,2013-02-13 05:57:00,
2013-02-13 01:03:00,39.8,18.0,29.77,SW,229,0.0,0.0,41,0.00,,SKC,0.00,VWS V14.01,2013-02-13 06:03:00,
2013-02-13 01:09:00,39.6,23.9,29.77,SW,229,0.0,3.0,53,0.00,,SKC,0.00,VWS V14.01,2013-02-13 06:09:00,
2013-02-13 01:15:00,39.5,23.8,29.76,SW,229,0.0,3.0,53,0.00,,SKC,0.00,VWS V14.01,2013-02-13 06:15:00,
2013-02-13 01:21:00,39.1,22.5,29.76,SW,229,0.0,0.0,51,0.00,,SKC,0.00,VWS V14.01,2013-02-13 06:21:00,
2013-02-13 01:28:00,38.8,22.2,29.76,SW,229,0.0,4.0,51,0.00,,SKC,0.00,VWS V14.01,2013-02-13 06:28:00,
2013-02-13 01:34:00,38.6,23.0,29.76,SW,229,0.0,4.0,53,0.00,,SKC,0.00,VWS V14.01,2013-02-13 06:34:00,
2013-02-13 01:40:00,38.5,23.3,29.76,SW,228,0.0,4.0,54,0.00,,SKC,0.00,VWS V14.01,2013-02-13 06:40:00,
2013-02-13 01:46:00,38.3,24.0,29.74,SSW,207,3.0,7.0,56,0.00,,SKC,0.00,VWS V14.01,2013-02-13 06:46:00,
2013-02-13 01:52:00,38.3,24.0,29.74,SSW,207,0.0,4.0,56,0.00,,SKC,0.00,VWS V14.01,2013-02-13 06:52:00,
2013-02-13 01:58:00,38.2,24.7,29.74,SSW,207,0.0,4.0,58,0.00,,SKC,0.00,VWS V14.01,2013-02-13 06:58:00,
2013-02-13 02:04:00,37.9,25.3,29.74,SSW,207,0.0,0.0,60,0.00,,SKC,0.00,VWS V14.01,2013-02-13 07:04:00,
2013-02-13 02:10:00,37.8,25.2,29.74,SSW,207,0.0,4.0,60,0.00,,SKC,0.00,VWS V14.01,2013-02-13 07:10:00,
2013-02-13 02:16:00,37.8,24.8,29.75,SSW,207,0.0,4.0,59,0.00,,SKC,0.00,VWS V14.01,2013-02-13 07:16:00,
2013-02-13 02:22:00,37.8,25.2,29.75,SSW,207,0.0,0.0,60,0.00,,SKC,0.00,VWS V14.01,2013-02-13 07:22:00,
2013-02-13 02:28:00,37.8,25.2,29.75,SSW,207,0.0,0.0,60,0.00,,SKC,0.00,VWS V14.01,2013-02-13 07:28:00,
2013-02-13 02:34:00,37.8,25.2,29.74,SSW,207,0.0,0.0,60,0.00,,SKC,0.00,VWS V14.01,2013-02-13 07:34:00,
2013-02-13 02:40:00,37.6,25.0,29.74,SSW,207,0.0,0.0,60,0.00,,SKC,0.00,VWS V14.01,2013-02-13 07:40:00,
2013-02-13 02:46:00,37.6,25.0,29.73,SSW,207,0.0,0.0,60,0.00,,SKC,0.00,VWS V14.01,2013-02-13 07:46:00,
2013-02-13 02:52:00,37.6,25.4,29.73,SSW,207,0.0,0.0,61,0.00,,SKC,0.00,VWS V14.01,2013-02-13 07:52:00,
2013-02-13 02:58:00,37.3,26.3,29.73,SSW,207,0.0,0.0,64,0.00,,SKC,0.00,VWS V14.01,2013-02-13 07:58:00,
2013-02-13 03:04:00,37.2,26.2,29.74,SSW,207,0.0,0.0,64,0.00,,SKC,0.00,VWS V14.01,2013-02-13 08:04:00,
2013-02-13 03:10:00,37.2,26.9,29.74,SSW,211,0.0,9.0,66,0.00,,SKC,0.00,VWS V14.01,2013-02-13 08:10:00,
2013-02-13 03:16:00,37.3,29.5,29.72,SSW,210,1.0,9.0,73,0.00,,SKC,0.00,VWS V14.01,2013-02-13 08:16:00,
2013-02-13 03:22:00,37.3,30.1,29.72,SSW,210,0.0,4.0,75,0.00,,SKC,0.00,VWS V14.01,2013-02-13 08:22:00,
2013-02-13 03:28:00,37.3,30.4,29.72,SSW,210,0.0,4.0,76,0.00,,SKC,0.00,VWS V14.01,2013-02-13 08:28:00,
2013-02-13 03:34:00,37.3,30.4,29.71,SSW,210,0.0,0.0,76,0.00,,SKC,0.00,VWS V14.01,2013-02-13 08:34:00,
2013-02-13 03:40:00,37.3,30.4,29.71,SSW,210,0.0,0.0,76,0.00,,SKC,0.00,VWS V14.01,2013-02-13 08:40:00,
2013-02-13 03:46:00,37.2,30.4,29.69,SSW,210,0.0,0.0,76,0.00,,SKC,0.00,VWS V14.01,2013-02-13 08:46:00,
2013-02-13 03:52:00,37.2,30.4,29.69,SSW,210,0.0,0.0,76,0.00,,SKC,0.00,VWS V14.01,2013-02-13 08:52:00,
2013-02-13 03:58:00,37.3,30.4,29.69,SSW,210,0.0,0.0,76,0.00,,SKC,0.00,VWS V14.01,2013-02-13 08:58:00,
2013-02-13 04:04:00,37.6,30.7,29.69,SSW,210,0.0,0.0,76,0.00,,SKC,0.00,VWS V14.01,2013-02-13 09:04:00,
2013-02-13 04:10:00,37.9,31.0,29.69,SSW,210,0.0,0.0,76,0.00,,SKC,0.00,VWS V14.01,2013-02-13 09:10:00,
2013-02-13 04:16:00,37.9,30.7,29.69,SSW,210,0.0,0.0,75,0.00,,SKC,0.00,VWS V14.01,2013-02-13 09:16:00,
2013-02-13 04:22:00,37.9,30.4,29.69,SSW,210,0.0,0.0,74,0.00,,SKC,0.00,VWS V14.01,2013-02-13 09:22:00,
2013-02-13 04:28:00,37.8,29.9,29.69,SSW,210,0.0,0.0,73,0.00,,SKC,0.00,VWS V14.01,2013-02-13 09:28:00,
2013-02-13 04:34:00,38.0,28.8,29.68,SSW,210,0.0,0.0,69,0.00,,SKC,0.00,VWS V14.01,2013-02-13 09:34:00,
2013-02-13 04:40:00,38.0,28.4,29.68,SSW,210,0.0,0.0,68,0.00,,SKC,0.00,VWS V14.01,2013-02-13 09:40:00,
2013-02-13 04:46:00,38.0,28.0,29.68,SSW,210,0.0,0.0,67,0.00,,SKC,0.00,VWS V14.01,2013-02-13 09:46:00,
2013-02-13 04:52:00,37.9,26.8,29.68,SSW,210,0.0,0.0,64,0.00,,SKC,0.00,VWS V14.01,2013-02-13 09:52:00,
2013-02-13 04:58:00,38.2,26.7,29.68,SSW,210,0.0,0.0,63,0.00,,SKC,0.00,VWS V14.01,2013-02-13 09:58:00,
2013-02-13 05:05:00,38.2,26.3,29.67,SSW,210,0.0,0.0,62,0.00,,SKC,0.00,VWS V14.01,2013-02-13 10:05:00,
2013-02-13 05:11:00,38.0,26.5,29.67,SSW,210,0.0,0.0,63,0.00,,SKC,0.00,VWS V14.01,2013-02-13 10:11:00,
2013-02-13 05:16:00,38.0,26.9,29.67,SSW,210,0.0,0.0,64,0.00,,SKC,0.00,VWS V14.01,2013-02-13 10:16:00,
2013-02-13 05:23:00,37.9,26.5,29.67,SSW,210,0.0,0.0,63,0.00,,SKC,0.00,VWS V14.01,2013-02-13 10:23:00,
2013-02-13 05:29:00,37.9,27.2,29.67,SSW,210,0.0,0.0,65,0.00,,SKC,0.00,VWS V14.01,2013-02-13 10:29:00,
2013-02-13 05:35:00,37.9,28.3,29.67,SSW,210,0.0,0.0,68,0.00,,SKC,0.00,VWS V14.01,2013-02-13 10:35:00,
2013-02-13 05:41:00,37.6,28.7,29.67,SSW,210,0.0,0.0,70,0.00,,SKC,0.00,VWS V14.01,2013-02-13 10:41:00,
2013-02-13 05:46:00,37.5,29.0,29.68,SSW,210,0.0,0.0,71,0.00,,SKC,0.00,VWS V14.01,2013-02-13 10:46:00,
2013-02-13 05:53:00,37.3,28.8,29.68,SSW,210,0.0,0.0,71,0.00,,SKC,0.00,VWS V14.01,2013-02-13 10:53:00,
2013-02-13 05:59:00,37.3,28.1,29.68,SSW,210,0.0,0.0,69,0.00,,SKC,0.00,VWS V14.01,2013-02-13 10:59:00,
2013-02-13 06:05:00,37.5,27.9,29.67,SSW,210,0.0,0.0,68,0.00,,SKC,0.00,VWS V14.01,2013-02-13 11:05:00,
2013-02-13 06:11:00,37.6,28.0,29.67,SSW,210,0.0,0.0,68,0.00,,SKC,0.00,VWS V14.01,2013-02-13 11:11:00,
2013-02-13 06:16:00,37.8,27.5,29.66,SSW,210,0.0,0.0,66,0.00,,SKC,0.00,VWS V14.01,2013-02-13 11:16:00,
2013-02-13 06:23:00,37.6,26.2,29.66,SSW,210,0.0,0.0,63,0.00,,SKC,0.00,VWS V14.01,2013-02-13 11:23:00,
2013-02-13 06:29:00,37.6,24.6,29.66,SSW,210,0.0,0.0,59,0.00,,SKC,0.00,VWS V14.01,2013-02-13 11:29:00,
2013-02-13 06:35:00,37.8,26.0,29.67,SSW,210,0.0,0.0,62,0.00,,SKC,0.00,VWS V14.01,2013-02-13 11:35:00,
2013-02-13 06:41:00,37.6,26.9,29.67,SSW,210,0.0,0.0,65,0.00,,SKC,0.00,VWS V14.01,2013-02-13 11:41:00,
2013-02-13 06:46:00,37.6,27.3,29.67,SSW,210,0.0,0.0,66,0.00,,SKC,0.00,VWS V14.01,2013-02-13 11:46:00,
2013-02-13 06:53:00,37.2,28.7,29.67,SSW,210,0.0,0.0,71,0.01,,SKC,0.01,VWS V14.01,2013-02-13 11:53:00,
2013-02-13 06:59:00,36.8,29.3,29.67,SSW,210,0.0,0.0,74,0.01,,SKC,0.01,VWS V14.01,2013-02-13 11:59:00,
2013-02-13 07:05:00,36.5,30.6,29.67,SSW,210,0.0,0.0,79,0.01,,SKC,0.01,VWS V14.01,2013-02-13 12:05:00,
2013-02-13 07:11:00,36.3,30.7,29.67,SSW,210,0.0,0.0,80,0.01,,SKC,0.01,VWS V14.01,2013-02-13 12:11:00,
2013-02-13 07:16:00,36.0,30.8,29.66,SSW,210,0.0,0.0,81,0.01,,SKC,0.01,VWS V14.01,2013-02-13 12:16:00,
2013-02-13 07:23:00,35.8,28.7,29.66,SSW,210,0.0,0.0,75,0.01,,SKC,0.01,VWS V14.01,2013-02-13 12:23:00,
2013-02-13 07:29:00,35.5,29.0,29.66,SSW,210,0.0,0.0,77,0.01,,SKC,0.01,VWS V14.01,2013-02-13 12:29:00,
2013-02-13 07:35:00,35.3,29.5,29.68,SSW,210,0.0,0.0,79,0.01,,SKC,0.01,VWS V14.01,2013-02-13 12:35:00,
2013-02-13 07:41:00,35.2,29.4,29.68,SSW,210,0.0,2.0,79,0.01,,SKC,0.01,VWS V14.01,2013-02-13 12:41:00,
2013-02-13 07:46:00,35.2,29.4,29.66,SSW,210,0.0,3.0,79,0.01,,SKC,0.01,VWS V14.01,2013-02-13 12:46:00,
2013-02-13 07:53:00,35.0,30.4,29.66,SSW,210,0.0,0.0,83,0.01,,SKC,0.01,VWS V14.01,2013-02-13 12:53:00,
2013-02-13 07:59:00,34.9,31.1,29.66,SSW,210,0.0,0.0,86,0.01,,SKC,0.01,VWS V14.01,2013-02-13 12:59:00,
2013-02-13 08:05:00,34.6,31.1,29.67,SSW,210,0.0,0.0,87,0.01,,SKC,0.02,VWS V14.01,2013-02-13 13:05:00,
2013-02-13 08:11:00,34.6,31.7,29.67,SSW,210,0.0,0.0,89,0.01,,SKC,0.02,VWS V14.01,2013-02-13 13:11:00,
2013-02-13 08:17:00,34.6,32.2,29.66,SSW,210,0.0,0.0,91,0.01,,SKC,0.02,VWS V14.01,2013-02-13 13:17:00,
2013-02-13 08:23:00,34.6,32.5,29.66,SSW,210,0.0,6.0,92,0.01,,SKC,0.02,VWS V14.01,2013-02-13 13:23:00,
2013-02-13 08:29:00,34.4,32.6,29.66,SW,221,0.0,6.0,93,0.01,,SKC,0.02,VWS V14.01,2013-02-13 13:29:00,
2013-02-13 08:35:00,34.3,32.5,29.66,SW,214,4.0,9.0,93,0.01,,SKC,0.02,VWS V14.01,2013-02-13 13:35:00,
2013-02-13 08:41:00,34.1,32.6,29.66,SW,223,3.0,9.0,94,0.02,,SKC,0.03,VWS V14.01,2013-02-13 13:41:00,
2013-02-13 08:47:00,34.0,32.5,29.67,SW,218,3.0,6.0,94,0.02,,SKC,0.03,VWS V14.01,2013-02-13 13:47:00,
2013-02-13 08:53:00,34.0,32.7,29.67,SW,216,0.0,7.0,95,0.02,,SKC,0.03,VWS V14.01,2013-02-13 13:53:00,
2013-02-13 08:59:00,34.0,32.7,29.67,SW,216,0.0,7.0,95,0.02,,SKC,0.03,VWS V14.01,2013-02-13 13:59:00,
2013-02-13 09:05:00,34.1,32.8,29.67,SW,232,0.0,6.0,95,0.01,,SKC,0.03,VWS V14.01,2013-02-13 14:05:00,
2013-02-13 09:11:00,34.1,33.1,29.67,SW,236,4.0,10.0,96,0.01,,SKC,0.03,VWS V14.01,2013-02-13 14:11:00,
2013-02-13 09:17:00,34.0,33.0,29.66,SW,226,0.0,5.0,96,0.01,,SKC,0.03,VWS V14.01,2013-02-13 14:17:00,
2013-02-13 09:23:00,33.8,32.8,29.66,SW,222,5.0,7.0,96,0.02,,SKC,0.04,VWS V14.01,2013-02-13 14:23:00,
2013-02-13 09:30:00,33.7,32.7,29.66,SW,222,3.0,7.0,96,0.02,,SKC,0.04,VWS V14.01,2013-02-13 14:30:00,
2013-02-13 09:36:00,33.4,32.4,29.65,SW,221,0.0,5.0,96,0.02,,SKC,0.04,VWS V14.01,2013-02-13 14:36:00,
2013-02-13 09:42:00,33.4,32.4,29.65,SW,218,0.0,6.0,96,0.02,,SKC,0.04,VWS V14.01,2013-02-13 14:42:00,
2013-02-13 09:48:00,33.5,32.5,29.64,SW,218,0.0,0.0,96,0.01,,SKC,0.04,VWS V14.01,2013-02-13 14:48:00,
2013-02-13 09:54:00,33.8,32.8,29.64,SW,218,0.0,0.0,96,0.01,,SKC,0.04,VWS V14.01,2013-02-13 14:54:00,
2013-02-13 10:00:00,34.0,33.2,29.64,SW,218,2.0,2.0,97,0.01,,SKC,0.04,VWS V14.01,2013-02-13 15:00:00,
2013-02-13 10:06:00,34.1,33.3,29.64,SW,218,4.0,5.0,97,0.01,,SKC,0.04,VWS V14.01,2013-02-13 15:06:00,
2013-02-13 10:12:00,34.3,33.5,29.64,SW,218,0.0,5.0,97,0.01,,SKC,0.04,VWS V14.01,2013-02-13 15:12:00,
2013-02-13 10:18:00,34.4,33.6,29.63,SW,218,0.0,0.0,97,0.02,,SKC,0.05,VWS V14.01,2013-02-13 15:18:00,
2013-02-13 10:24:00,34.6,33.8,29.63,SSW,193,0.0,7.0,97,0.02,,SKC,0.05,VWS V14.01,2013-02-13 15:24:00,
2013-02-13 10:30:00,34.7,33.9,29.63,SSW,193,0.0,7.0,97,0.02,,SKC,0.05,VWS V14.01,2013-02-13 15:30:00,
2013-02-13 10:36:00,34.9,34.1,29.63,SSW,193,2.0,5.0,97,0.01,,SKC,0.05,VWS V14.01,2013-02-13 15:36:00,
2013-02-13 10:42:00,34.9,34.4,29.63,SW,216,2.0,9.0,98,0.01,,SKC,0.05,VWS V14.01,2013-02-13 15:42:00,
2013-02-13 10:48:00,34.9,34.4,29.62,SW,230,3.0,5.0,98,0.01,,SKC,0.05,VWS V14.01,2013-02-13 15:48:00,
2013-02-13 10:54:00,34.9,34.4,29.62,SW,229,1.0,7.0,98,0.01,,SKC,0.05,VWS V14.01,2013-02-13 15:54:00,
2013-02-13 11:00:00,34.9,34.4,29.62,South,188,3.0,10.0,98,0.01,,SKC,0.05,VWS V14.01,2013-02-13 16:00:00,
2013-02-13 11:06:00,34.9,34.4,29.62,SSW,194,0.0,9.0,98,0.01,,SKC,0.05,VWS V14.01,2013-02-13 16:06:00,
2013-02-13 11:12:00,34.9,34.4,29.62,SW,227,2.0,10.0,98,0.01,,SKC,0.05,VWS V14.01,2013-02-13 16:12:00,
2013-02-13 11:18:00,34.9,34.4,29.61,SW,227,1.0,6.0,98,0.01,,SKC,0.05,VWS V14.01,2013-02-13 16:18:00,
2013-02-13 11:24:00,34.9,34.4,29.61,SW,232,0.0,9.0,98,0.02,,SKC,0.06,VWS V14.01,2013-02-13 16:24:00,
2013-02-13 11:30:00,34.7,34.5,29.61,SW,225,4.0,12.0,99,0.02,,SKC,0.06,VWS V14.01,2013-02-13 16:30:00,
2013-02-13 11:36:00,34.9,34.7,29.61,SSW,212,4.0,9.0,99,0.01,,SKC,0.06,VWS V14.01,2013-02-13 16:36:00,
2013-02-13 11:42:00,34.9,34.7,29.61,SW,233,4.0,14.0,99,0.01,,SKC,0.06,VWS V14.01,2013-02-13 16:42:00,
2013-02-13 11:48:00,34.7,34.5,29.59,WSW,239,3.0,11.0,99,0.01,,SKC,0.06,VWS V14.01,2013-02-13 16:48:00,
2013-02-13 11:54:00,34.7,34.5,29.59,SSW,206,7.0,12.0,99,0.01,,SKC,0.06,VWS V14.01,2013-02-13 16:54:00,
2013-02-13 12:00:00,34.7,34.5,29.59,SSW,200,6.0,14.0,99,0.01,,SKC,0.06,VWS V14.01,2013-02-13 17:00:00,
2013-02-13 12:06:00,34.9,34.7,29.59,SW,230,5.0,7.0,99,0.01,,SKC,0.06,VWS V14.01,2013-02-13 17:06:00,
2013-02-13 12:12:00,34.9,34.9,29.59,SSW,206,2.0,14.0,100,0.01,,SKC,0.06,VWS V14.01,2013-02-13 17:12:00,
2013-02-13 12:18:00,34.9,34.9,29.58,SW,235,3.0,11.0,100,0.01,,SKC,0.06,VWS V14.01,2013-02-13 17:18:00,
2013-02-13 12:24:00,34.9,34.9,29.58,SSW,205,0.0,12.0,100,0.01,,SKC,0.06,VWS V14.01,2013-02-13 17:24:00,
2013-02-13 12:30:00,34.9,34.9,29.57,SW,217,5.0,12.0,100,0.01,,SKC,0.06,VWS V14.01,2013-02-13 17:30:00,
2013-02-13 12:36:00,34.9,34.9,29.57,SW,229,3.0,7.0,100,0.00,,SKC,0.06,VWS V14.01,2013-02-13 17:36:00,
2013-02-13 12:42:00,35.0,35.0,29.57,SW,223,4.0,11.0,100,0.00,,SKC,0.06,VWS V14.01,2013-02-13 17:42:00,
2013-02-13 12:48:00,34.9,34.9,29.55,SW,233,3.0,7.0,100,0.00,,SKC,0.06,VWS V14.01,2013-02-13 17:48:00,
2013-02-13 12:54:00,34.9,34.9,29.55,SW,231,3.0,9.0,100,0.00,,SKC,0.06,VWS V14.01,2013-02-13 17:54:00,
2013-02-13 13:00:00,34.9,34.9,29.54,SW,228,3.0,10.0,100,0.00,,SKC,0.06,VWS V14.01,2013-02-13 18:00:00,
2013-02-13 13:06:00,35.0,35.0,29.54,SW,226,2.0,7.0,100,0.00,,SKC,0.06,VWS V14.01,2013-02-13 18:06:00,
2013-02-13 13:12:00,34.9,34.9,29.54,South,181,5.0,10.0,100,0.00,,SKC,0.06,VWS V14.01,2013-02-13 18:12:00,
2013-02-13 13:18:00,34.9,34.9,29.54,SW,215,4.0,10.0,100,0.00,,SKC,0.06,VWS V14.01,2013-02-13 18:18:00,
2013-02-13 13:24:00,35.0,35.0,29.54,WSW,239,2.0,10.0,100,0.00,,SKC,0.06,VWS V14.01,2013-02-13 18:24:00,
2013-02-13 13:30:00,35.0,35.0,29.53,SW,229,0.0,10.0,100,0.00,,SKC,0.06,VWS V14.01,2013-02-13 18:30:00,
2013-02-13 13:36:00,35.0,35.0,29.53,SSW,211,2.0,10.0,100,0.00,,SKC,0.06,VWS V14.01,2013-02-13 18:36:00,
2013-02-13 13:42:00,35.0,35.0,29.53,SW,219,5.0,10.0,100,0.00,,SKC,0.06,VWS V14.01,2013-02-13 18:42:00,
2013-02-13 13:48:00,35.0,35.0,29.52,SW,220,2.0,8.0,100,0.00,,SKC,0.06,VWS V14.01,2013-02-13 18:48:00,
2013-02-13 13:55:00,35.0,35.0,29.52,SW,222,0.0,11.0,100,0.00,,SKC,0.06,VWS V14.01,2013-02-13 18:55:00,
2013-02-13 14:01:00,34.7,34.7,29.51,SW,223,0.0,11.0,100,0.00,,SKC,0.06,VWS V14.01,2013-02-13 19:01:00,
2013-02-13 14:07:00,34.9,34.9,29.51,SW,234,5.0,8.0,100,0.00,,SKC,0.06,VWS V14.01,2013-02-13 19:07:00,
2013-02-13 14:13:00,35.0,35.0,29.51,SSW,198,5.0,11.0,100,0.01,,SKC,0.07,VWS V14.01,2013-02-13 19:13:00,
2013-02-13 14:19:00,35.2,35.2,29.50,SW,217,3.0,9.0,100,0.01,,SKC,0.07,VWS V14.01,2013-02-13 19:19:00,
2013-02-13 14:25:00,35.2,35.2,29.50,South,177,3.0,10.0,100,0.01,,SKC,0.07,VWS V14.01,2013-02-13 19:25:00,
2013-02-13 14:31:00,35.2,35.2,29.50,SW,218,0.0,10.0,100,0.01,,SKC,0.07,VWS V14.01,2013-02-13 19:31:00,
2013-02-13 14:37:00,35.2,35.2,29.50,WSW,240,3.0,10.0,100,0.01,,SKC,0.07,VWS V14.01,2013-02-13 19:37:00,
2013-02-13 14:43:00,35.2,35.2,29.50,SW,236,5.0,10.0,100,0.01,,SKC,0.07,VWS V14.01,2013-02-13 19:43:00,
2013-02-13 14:49:00,35.2,35.2,29.50,SW,217,5.0,7.0,100,0.01,,SKC,0.07,VWS V14.01,2013-02-13 19:49:00,
2013-02-13 14:55:00,35.3,35.3,29.50,SW,226,2.0,7.0,100,0.01,,SKC,0.07,VWS V14.01,2013-02-13 19:55:00,
2013-02-13 15:01:00,35.3,35.3,29.50,SW,226,0.0,7.0,100,0.01,,SKC,0.07,VWS V14.01,2013-02-13 20:01:00,
2013-02-13 15:07:00,35.5,35.5,29.50,SW,221,0.0,6.0,100,0.02,,SKC,0.08,VWS V14.01,2013-02-13 20:07:00,
2013-02-13 15:13:00,35.5,35.5,29.50,SW,221,3.0,6.0,100,0.02,,SKC,0.08,VWS V14.01,2013-02-13 20:13:00,
2013-02-13 15:19:00,35.5,35.5,29.50,SSW,198,1.0,7.0,100,0.01,,SKC,0.08,VWS V14.01,2013-02-13 20:19:00,
2013-02-13 15:25:00,35.6,35.6,29.50,SSW,198,0.0,7.0,100,0.01,,SKC,0.08,VWS V14.01,2013-02-13 20:25:00,
2013-02-13 15:31:00,35.6,35.6,29.50,SSW,197,0.0,7.0,100,0.02,,SKC,0.09,VWS V14.01,2013-02-13 20:31:00,
2013-02-13 15:37:00,35.8,35.8,29.50,SSW,198,3.0,5.0,100,0.02,,SKC,0.09,VWS V14.01,2013-02-13 20:37:00,
2013-02-13 15:43:00,35.8,35.8,29.50,SW,226,3.0,6.0,100,0.02,,SKC,0.09,VWS V14.01,2013-02-13 20:43:00,
2013-02-13 15:49:00,35.8,35.8,29.50,SW,224,0.0,7.0,100,0.02,,SKC,0.09,VWS V14.01,2013-02-13 20:49:00,
2013-02-13 15:55:00,35.8,35.8,29.50,SW,224,0.0,7.0,100,0.02,,SKC,0.09,VWS V14.01,2013-02-13 20:55:00,
2013-02-13 16:01:00,35.8,35.8,29.49,SW,218,0.0,12.0,100,0.02,,SKC,0.09,VWS V14.01,2013-02-13 21:01:00,
2013-02-13 16:07:00,35.9,35.9,29.49,SW,221,2.0,7.0,100,0.02,,SKC,0.09,VWS V14.01,2013-02-13 21:07:00,
2013-02-13 16:13:00,35.9,35.9,29.49,SW,226,2.0,11.0,100,0.02,,SKC,0.09,VWS V14.01,2013-02-13 21:13:00,
2013-02-13 16:19:00,35.9,35.9,29.49,SW,225,0.0,5.0,100,0.01,,SKC,0.09,VWS V14.01,2013-02-13 21:19:00,
2013-02-13 16:25:00,36.0,36.0,29.49,SW,225,0.0,5.0,100,0.01,,SKC,0.09,VWS V14.01,2013-02-13 21:25:00,
2013-02-13 16:31:00,36.2,36.2,29.48,SW,225,0.0,5.0,100,0.01,,SKC,0.09,VWS V14.01,2013-02-13 21:31:00,
2013-02-13 16:37:00,36.3,36.3,29.48,SW,225,0.0,5.0,100,0.00,,SKC,0.09,VWS V14.01,2013-02-13 21:37:00,
2013-02-13 16:43:00,36.3,36.3,29.48,SW,214,3.0,7.0,100,0.00,,SKC,0.09,VWS V14.01,2013-02-13 21:43:00,
2013-02-13 16:49:00,36.5,36.5,29.49,SW,219,1.0,9.0,100,0.00,,SKC,0.09,VWS V14.01,2013-02-13 21:49:00,
2013-02-13 16:55:00,36.6,36.6,29.49,WSW,248,5.0,9.0,100,0.00,,SKC,0.09,VWS V14.01,2013-02-13 21:55:00,
2013-02-13 17:01:00,36.6,36.6,29.49,SSW,211,3.0,10.0,100,0.00,,SKC,0.09,VWS V14.01,2013-02-13 22:01:00,
2013-02-13 17:07:00,36.6,36.6,29.49,SSW,210,0.0,13.0,100,0.00,,SKC,0.09,VWS V14.01,2013-02-13 22:07:00,
2013-02-13 17:13:00,36.6,36.6,29.49,SW,228,8.0,15.0,100,0.00,,SKC,0.09,VWS V14.01,2013-02-13 22:13:00,
2013-02-13 17:19:00,36.6,36.6,29.50,SSW,211,6.0,12.0,100,0.00,,SKC,0.09,VWS V14.01,2013-02-13 22:19:00,
2013-02-13 17:25:00,36.6,36.6,29.50,SW,226,7.0,19.0,100,0.01,,SKC,0.10,VWS V14.01,2013-02-13 22:25:00,
2013-02-13 17:31:00,36.6,36.6,29.50,SSW,212,4.0,19.0,100,0.01,,SKC,0.10,VWS V14.01,2013-02-13 22:31:00,
2013-02-13 17:45:00,36.8,36.8,29.51,SSW,202,10.0,28.0,100,0.01,,SKC,0.10,VWS V14.01,2013-02-13 22:45:00,
2013-02-13 18:00:00,36.8,36.8,29.52,South,180,5.0,23.0,100,0.01,,SKC,0.10,VWS V14.01,2013-02-13 23:00:00,
2013-02-13 18:15:00,34.9,34.9,29.55,SW,225,6.0,20.0,100,0.02,,SKC,0.11,VWS V14.01,2013-02-13 23:15:00,
2013-02-13 18:30:00,34.0,34.0,29.56,South,180,5.0,23.0,100,0.02,,SKC,0.11,VWS V14.01,2013-02-13 23:30:00,
2013-02-13 18:45:00,32.9,32.9,29.58,SSW,202,7.0,22.0,100,0.01,,SKC,0.11,VWS V14.01,2013-02-13 23:45:00,
2013-02-13 19:00:00,31.9,31.9,29.59,SSW,202,5.0,21.0,100,0.01,,SKC,0.11,VWS V14.01,2013-02-14 00:00:00,
2013-02-13 19:15:00,31.2,31.0,29.60,SSW,202,4.0,16.0,99,0.01,,SKC,0.11,VWS V14.01,2013-02-14 00:15:00,
2013-02-13 19:30:00,30.7,30.2,29.61,SSW,202,7.0,21.0,98,0.00,,SKC,0.11,VWS V14.01,2013-02-14 00:30:00,
2013-02-13 19:45:00,30.4,29.6,29.62,SSW,202,5.0,15.0,97,0.00,,SKC,0.11,VWS V14.01,2013-02-14 00:45:00,
2013-02-13 20:00:00,30.3,29.0,29.64,SSW,202,4.0,17.0,95,0.00,,SKC,0.11,VWS V14.01,2013-02-14 01:00:00,
2013-02-13 20:15:00,29.8,28.0,29.63,SE,135,3.0,13.0,93,0.00,,SKC,0.11,VWS V14.01,2013-02-14 01:15:00,
2013-02-13 20:30:00,29.8,27.5,29.65,SSW,202,3.0,12.0,91,0.00,,SKC,0.11,VWS V14.01,2013-02-14 01:30:00,
2013-02-13 20:45:00,29.7,27.1,29.65,SSE,158,5.0,20.0,90,0.00,,SKC,0.11,VWS V14.01,2013-02-14 01:45:00,
2013-02-13 21:00:00,29.5,26.9,29.66,ESE,112,5.0,17.0,90,0.00,,SKC,0.11,VWS V14.01,2013-02-14 02:00:00,
2013-02-13 21:15:00,29.5,26.7,29.67,WSW,248,4.0,21.0,89,0.00,,SKC,0.11,VWS V14.01,2013-02-14 02:15:00,
2013-02-13 21:30:00,29.4,26.3,29.67,SSW,202,5.0,20.0,88,0.00,,SKC,0.11,VWS V14.01,2013-02-14 02:30:00,
2013-02-13 21:45:00,29.3,26.2,29.66,SSW,202,4.0,20.0,88,0.00,,SKC,0.11,VWS V14.01,2013-02-14 02:45:00,
2013-02-13 22:00:00,29.4,26.0,29.66,SSE,158,6.0,22.0,87,0.00,,SKC,0.11,VWS V14.01,2013-02-14 03:00:00,
2013-02-13 22:15:00,29.4,26.0,29.67,South,180,3.0,26.0,87,0.00,,SKC,0.11,VWS V14.01,2013-02-14 03:15:00,
2013-02-13 22:30:00,29.3,25.9,29.67,South,180,4.0,17.0,87,0.00,,SKC,0.11,VWS V14.01,2013-02-14 03:30:00,
2013-02-13 22:45:00,29.3,26.2,29.67,South,180,4.0,22.0,88,0.00,,SKC,0.11,VWS V14.01,2013-02-14 03:45:00,
2013-02-13 23:00:00,29.3,26.2,29.69,SE,135,4.0,12.0,88,0.00,,SKC,0.11,VWS V14.01,2013-02-14 04:00:00,
2013-02-13 23:15:00,29.1,26.3,29.70,SSW,202,4.0,23.0,89,0.00,,SKC,0.11,VWS V14.01,2013-02-14 04:15:00,
2013-02-13 23:30:00,29.0,26.4,29.70,SW,225,7.0,28.0,90,0.00,,SKC,0.11,VWS V14.01,2013-02-14 04:30:00,
2013-02-13 23:45:00,28.8,26.5,29.70,SSW,202,8.0,25.0,91,0.00,,SKC,0.11,VWS V14.01,2013-02-14 04:45:00,